Date,Time[GMT],Depth[m],Alt[m],T90[oC],Turb[FTU],Sal[psu]
21-Jun-2004,18:10:46,1278.6,5.5,4.3385,0.0270,4.4408
21-Jun-2004,18:10:47,1278.6,5.5,4.3387,0.0240,4.4408
21-Jun-2004,18:10:48,1278.6,5.5,4.3388,0.0340,4.4407
21-Jun-2004,18:10:49,1278.6,5.4,4.3387,0.0210,4.4407
21-Jun-2004,18:10:50,1279.8,5.3,4.3388,0.0400,4.4407
21-Jun-2004,18:10:51,1278.6,5.4,4.3386,0.0300,4.4408
21-Jun-2004,18:10:52,1278.6,5.3,4.3385,0.0240,4.4408
21-Jun-2004,18:10:53,1278.6,5.2,4.3386,0.0240,4.4408
21-Jun-2004,18:10:54,1279.2,5.2,4.3388,0.0240,4.4407
21-Jun-2004,18:10:55,1278.6,5.3,4.3385,0.0280,4.4408
21-Jun-2004,18:10:56,1279.2,5.3,4.3386,0.0210,4.4407
21-Jun-2004,18:10:57,1279.2,5.2,4.3387,0.0210,4.4407
21-Jun-2004,18:10:58,1278.6,5.2,4.3388,0.0580,4.4407
21-Jun-2004,18:10:59,1278.6,5.4,4.3385,0.0240,4.4408
21-Jun-2004,18:11:00,1278.6,5.4,4.3388,0.0280,4.4408
21-Jun-2004,18:11:01,1278.6,5.4,4.3388,0.0280,4.4407
21-Jun-2004,18:11:02,1278.6,5.4,4.3388,0.0340,4.4408
21-Jun-2004,18:11:03,1279.2,5.5,4.3386,0.0240,4.4407
21-Jun-2004,18:11:04,1278.6,5.5,4.3385,0.0240,4.4408
21-Jun-2004,18:11:05,1278.6,5.5,4.3383,0.0340,4.4408
21-Jun-2004,18:11:06,1278.6,5.5,4.3377,0.0210,4.5243
21-Jun-2004,18:11:07,1278.6,5.6,4.3373,0.0240,4.5243
21-Jun-2004,18:11:08,1278.6,5.5,4.3376,0.0240,4.5243
21-Jun-2004,18:11:09,1278.6,5.6,4.3378,0.0210,4.4409
21-Jun-2004,18:11:10,1278.6,5.7,4.3382,0.0210,4.5242
21-Jun-2004,18:11:11,1278.6,5.8,4.3383,0.0490,4.5242
21-Jun-2004,18:11:12,1278.6,5.8,4.3383,0.0580,4.5242
21-Jun-2004,18:11:13,1278.6,5.8,4.3386,0.0280,4.4408
21-Jun-2004,18:11:14,1278.6,5.8,4.3388,0.0280,4.5241
21-Jun-2004,18:11:15,1278.6,5.7,4.3391,0.0280,4.5241
21-Jun-2004,18:11:16,1278.6,5.6,4.3390,0.0300,4.5241
21-Jun-2004,18:11:17,1278.6,5.4,4.3383,0.0340,4.5242
21-Jun-2004,18:11:18,1279.2,5.1,4.3384,0.0370,4.5241
21-Jun-2004,18:11:19,1279.8,4.8,4.3388,0.0280,4.5240
21-Jun-2004,18:11:20,1279.2,4.6,4.3389,0.0280,4.5241
21-Jun-2004,18:11:21,1279.8,4.5,4.3382,0.1260,4.6075
21-Jun-2004,18:11:22,1279.8,4.3,4.3382,0.0340,4.4407
21-Jun-2004,18:11:23,1279.8,4.1,4.3383,0.0240,4.4407
21-Jun-2004,18:11:24,1281.0,3.9,4.3384,0.0210,4.4406
21-Jun-2004,18:11:25,1281.0,3.6,4.3383,0.0240,4.5240
21-Jun-2004,18:11:26,1281.0,3.4,4.3379,0.0640,4.5240
21-Jun-2004,18:11:27,1281.0,3.3,4.3385,0.0240,4.5240
21-Jun-2004,18:11:28,1281.0,3.4,4.3383,0.0280,4.4406
21-Jun-2004,18:11:29,1281.0,3.4,4.3379,0.0310,4.5241
21-Jun-2004,18:11:30,1281.0,3.4,4.3381,0.0240,4.5240
21-Jun-2004,18:11:31,1281.0,3.4,4.3381,0.0210,4.5240
21-Jun-2004,18:11:32,1281.0,3.3,4.3380,0.0490,4.4407
21-Jun-2004,18:11:33,1281.0,3.2,4.3378,0.0210,4.5241
21-Jun-2004,18:11:34,1281.0,3.2,4.3381,0.0240,4.5240
21-Jun-2004,18:11:35,1281.0,3.2,4.3378,0.0340,4.4407
21-Jun-2004,18:11:36,1281.0,3.1,4.3378,0.0210,4.5241
21-Jun-2004,18:11:37,1281.0,2.9,4.3378,0.0240,4.4407
21-Jun-2004,18:11:38,1281.0,3.1,4.3378,0.0280,4.5241
21-Jun-2004,18:11:39,1281.0,3.2,4.3379,0.0210,4.5240
21-Jun-2004,18:11:40,1281.6,2.8,4.3380,0.0180,4.4406
21-Jun-2004,18:11:41,1281.0,2.8,4.3378,0.0180,4.5241
21-Jun-2004,18:11:42,1281.6,2.7,4.3380,0.0340,4.5240
21-Jun-2004,18:11:43,1281.0,2.7,4.3380,0.0240,4.4407
21-Jun-2004,18:11:44,1281.6,2.9,4.3373,0.0210,4.5241
21-Jun-2004,18:11:45,1281.0,3.1,4.3369,0.0240,4.5242
21-Jun-2004,18:11:46,1281.0,3.2,4.3371,0.0210,4.4408
21-Jun-2004,18:11:47,1281.0,3.3,4.3373,0.0240,4.5242
21-Jun-2004,18:11:48,1280.4,3.5,4.3371,0.0520,4.5242
21-Jun-2004,18:11:49,1280.4,3.6,4.3370,0.0300,4.5243
21-Jun-2004,18:11:50,1280.4,3.8,4.3372,0.0210,4.5242
21-Jun-2004,18:11:51,1279.8,4.0,4.3372,0.0370,4.4409
21-Jun-2004,18:11:52,1279.8,4.2,4.3371,0.0310,4.4409
21-Jun-2004,18:11:53,1279.8,4.4,4.3372,0.0210,4.4409
21-Jun-2004,18:11:54,1279.8,4.3,4.3373,0.0210,4.5243
21-Jun-2004,18:11:55,1279.8,4.3,4.3373,0.0300,4.5243
21-Jun-2004,18:11:56,1280.4,4.2,4.3375,0.0240,4.5241
21-Jun-2004,18:11:57,1280.4,4.1,4.3377,0.0180,4.4407
21-Jun-2004,18:11:58,1279.8,4.1,4.3380,0.0210,4.5242
21-Jun-2004,18:11:59,1279.8,4.1,4.3378,0.0240,4.5242
21-Jun-2004,18:12:00,1280.4,4.0,4.3380,0.0210,4.4407
21-Jun-2004,18:12:01,1279.8,3.8,4.3378,0.0180,4.5242
21-Jun-2004,18:12:02,1280.4,3.7,4.3377,0.0270,4.4407
21-Jun-2004,18:12:03,1280.4,3.6,4.3378,0.0300,4.4407
21-Jun-2004,18:12:04,1281.0,3.6,4.3378,0.0280,4.5241
21-Jun-2004,18:12:05,1280.4,3.7,4.3377,0.0640,4.4407
21-Jun-2004,18:12:06,1280.4,3.7,4.3375,0.0180,4.5242
21-Jun-2004,18:12:07,1281.0,3.5,4.3374,0.0400,4.4407
21-Jun-2004,18:12:08,1280.4,3.5,4.3376,0.0450,4.5242
21-Jun-2004,18:12:09,1280.4,3.5,4.3371,0.0370,4.5243
21-Jun-2004,18:12:10,1281.0,3.6,4.3369,0.0240,4.5242
21-Jun-2004,18:12:11,1281.0,3.5,4.3370,0.0150,4.4408
21-Jun-2004,18:12:12,1281.0,3.4,4.3371,0.0280,4.5242
21-Jun-2004,18:12:13,1281.0,3.4,4.3373,0.0280,4.5242
21-Jun-2004,18:12:14,1281.0,3.3,4.3372,0.0240,4.5242
21-Jun-2004,18:12:15,1281.0,3.2,4.3370,0.0280,4.5242
21-Jun-2004,18:12:16,1281.0,3.2,4.3370,0.0210,4.4408
21-Jun-2004,18:12:17,1281.0,3.1,4.3370,0.0340,4.5242
21-Jun-2004,18:12:18,1281.0,3.0,4.3367,0.0550,4.5243
21-Jun-2004,18:12:19,1281.0,2.9,4.3371,0.0180,4.5242
21-Jun-2004,18:12:20,1281.6,2.9,4.3370,0.0280,4.5241
21-Jun-2004,18:12:21,1281.0,2.8,4.3370,0.0180,4.4408
21-Jun-2004,18:12:22,1281.0,2.6,4.3367,0.0340,4.5243
21-Jun-2004,18:12:23,1281.0,2.5,4.3370,0.0240,4.5242
21-Jun-2004,18:12:24,1281.0,2.4,4.3371,0.0210,4.5242
21-Jun-2004,18:12:25,1281.6,2.3,4.3369,0.0240,4.5242
21-Jun-2004,18:12:26,1282.2,2.1,4.3366,0.0210,4.4408
21-Jun-2004,18:12:27,1282.2,2.1,4.3369,0.0240,4.4407
21-Jun-2004,18:12:28,1282.2,2.0,4.3367,0.0280,4.5241
21-Jun-2004,18:12:29,1282.2,1.8,4.3367,0.0520,4.5242
21-Jun-2004,18:12:30,1282.2,1.9,4.3366,0.0210,4.4407
21-Jun-2004,18:12:31,1281.0,2.1,4.3363,0.0210,4.4409
21-Jun-2004,18:12:32,1281.6,2.2,4.3361,0.0310,4.5243
21-Jun-2004,18:12:33,1281.0,2.5,4.3360,0.0210,4.4410
21-Jun-2004,18:12:34,1281.0,2.8,4.3357,0.0300,4.5244
21-Jun-2004,18:12:35,1281.0,3.0,4.3361,0.0490,4.4409
21-Jun-2004,18:12:36,1281.0,3.1,4.3360,0.0280,4.5244
21-Jun-2004,18:12:37,1279.8,3.4,4.3357,0.0300,4.4411
21-Jun-2004,18:12:38,1279.8,3.6,4.3359,0.0240,4.5244
21-Jun-2004,18:12:39,1279.8,3.8,4.3362,0.0210,4.4410
21-Jun-2004,18:12:40,1279.8,4.0,4.3361,0.0650,4.5244
21-Jun-2004,18:12:41,1279.8,4.2,4.3360,0.0280,4.5244
21-Jun-2004,18:12:42,1279.8,4.3,4.3361,0.0210,4.4410
21-Jun-2004,18:12:43,1279.8,4.2,4.3361,0.0240,4.5244
21-Jun-2004,18:12:44,1279.8,4.1,4.3363,0.0210,4.5244
21-Jun-2004,18:12:45,1279.8,4.0,4.3368,0.0280,4.4409
21-Jun-2004,18:12:46,1279.8,4.0,4.3368,0.0180,4.5243
21-Jun-2004,18:12:47,1279.8,3.8,4.3363,0.0280,4.4410
21-Jun-2004,18:12:48,1281.0,3.6,4.3367,0.0340,4.4409
21-Jun-2004,18:12:49,1279.8,3.6,4.3368,0.0400,4.5243
21-Jun-2004,18:12:50,1281.0,3.5,4.3368,0.0370,4.5243
21-Jun-2004,18:12:51,1280.4,3.4,4.3368,0.0180,4.4409
21-Jun-2004,18:12:52,1281.0,3.3,4.3368,0.0280,4.4409
21-Jun-2004,18:12:53,1281.0,3.2,4.3368,0.0180,4.5243
21-Jun-2004,18:12:54,1281.0,3.0,4.3366,0.0210,4.5243
21-Jun-2004,18:12:55,1281.0,2.9,4.3368,0.0210,4.5242
21-Jun-2004,18:12:56,1281.0,2.8,4.3368,0.0210,4.4409
21-Jun-2004,18:12:57,1281.0,2.6,4.3366,0.0150,4.5243
21-Jun-2004,18:12:58,1281.0,2.5,4.3364,0.0180,4.5243
21-Jun-2004,18:12:59,1281.0,2.5,4.3367,0.0210,4.4409
21-Jun-2004,18:13:00,1281.0,2.4,4.3366,0.0210,4.4409
21-Jun-2004,18:13:01,1281.0,2.4,4.3366,0.0210,4.5243
21-Jun-2004,18:13:02,1281.0,2.5,4.3364,0.0280,4.4409
21-Jun-2004,18:13:03,1281.0,2.6,4.3364,0.0210,4.4409
21-Jun-2004,18:13:04,1281.0,2.7,4.3364,0.0210,4.5243
21-Jun-2004,18:13:05,1281.0,3.0,4.3363,0.0240,4.5243
21-Jun-2004,18:13:06,1281.0,3.0,4.3364,0.0760,4.4409
21-Jun-2004,18:13:07,1281.0,3.0,4.3368,0.0670,4.4409
21-Jun-2004,18:13:08,1280.4,3.1,4.3370,0.0340,4.5243
21-Jun-2004,18:13:09,1280.4,3.3,4.3370,0.0240,4.4409
21-Jun-2004,18:13:10,1279.8,3.3,4.3369,0.0460,4.5243
21-Jun-2004,18:13:11,1279.8,3.4,4.3371,0.0310,4.5243
21-Jun-2004,18:13:12,1279.8,3.6,4.3369,0.0240,4.5243
21-Jun-2004,18:13:13,1279.8,3.8,4.3372,0.0300,4.5243
21-Jun-2004,18:13:14,1279.8,3.8,4.3373,0.0210,4.4409
21-Jun-2004,18:13:15,1279.8,3.8,4.3373,0.0270,4.5243
21-Jun-2004,18:13:16,1279.8,3.8,4.3370,0.0240,4.4409
21-Jun-2004,18:13:17,1279.8,3.7,4.3373,0.0270,4.5243
21-Jun-2004,18:13:18,1279.8,3.7,4.3375,0.0240,4.5242
21-Jun-2004,18:13:19,1279.8,3.7,4.3371,0.0250,4.5243
21-Jun-2004,18:13:20,1279.8,3.5,4.3370,0.0280,4.5243
21-Jun-2004,18:13:21,1279.8,3.5,4.3374,0.0280,4.4409
21-Jun-2004,18:13:22,1279.8,3.6,4.3371,0.0240,4.4409
21-Jun-2004,18:13:23,1279.8,3.6,4.3371,0.0180,4.4409
21-Jun-2004,18:13:24,1279.8,3.5,4.3373,0.0210,4.4409
21-Jun-2004,18:13:25,1279.8,3.4,4.3372,0.0280,4.5243
21-Jun-2004,18:13:26,1279.8,3.4,4.3372,0.0240,4.5243
21-Jun-2004,18:13:27,1279.8,3.3,4.3370,0.0370,4.4409
21-Jun-2004,18:13:28,1279.8,3.4,4.3370,0.0280,4.5243
21-Jun-2004,18:13:29,1279.8,3.5,4.3371,0.0210,4.5243
21-Jun-2004,18:13:30,1279.8,3.5,4.3370,0.0240,4.5243
21-Jun-2004,18:13:31,1279.8,3.5,4.3373,0.0150,4.5243
21-Jun-2004,18:13:32,1279.8,3.6,4.3374,0.0300,4.4409
21-Jun-2004,18:13:33,1279.8,3.7,4.3375,0.0180,4.5243
21-Jun-2004,18:13:34,1279.8,3.8,4.3373,0.0210,4.4409
21-Jun-2004,18:13:35,1279.8,3.9,4.3371,0.0240,4.5243
21-Jun-2004,18:13:36,1278.6,4.1,4.3371,0.0360,4.5244
21-Jun-2004,18:13:37,1278.6,4.3,4.3371,0.0240,4.5244
21-Jun-2004,18:13:38,1278.6,4.4,4.3372,0.0790,4.5244
21-Jun-2004,18:13:39,1278.6,4.4,4.3371,0.0270,4.4410
21-Jun-2004,18:13:40,1278.6,4.4,4.3370,0.0180,4.5244
21-Jun-2004,18:13:41,1278.6,4.4,4.3371,0.0150,4.5244
21-Jun-2004,18:13:42,1279.8,4.3,4.3370,0.0280,4.5243
21-Jun-2004,18:13:43,1279.8,4.1,4.3370,0.0340,4.5243
21-Jun-2004,18:13:44,1279.8,4.1,4.3374,0.0280,4.4409
21-Jun-2004,18:13:45,1279.8,4.0,4.3371,0.0210,4.4409
21-Jun-2004,18:13:46,1279.8,3.8,4.3368,0.0210,4.4409
21-Jun-2004,18:13:47,1279.8,3.7,4.3374,0.0180,4.4409
21-Jun-2004,18:13:48,1279.8,3.7,4.3373,0.0240,4.5243
21-Jun-2004,18:13:49,1279.8,3.6,4.3370,0.0370,4.5243
21-Jun-2004,18:13:50,1280.4,3.3,4.3369,0.0370,4.4409
21-Jun-2004,18:13:51,1280.4,3.2,4.3371,0.0240,4.5243
21-Jun-2004,18:13:52,1279.8,3.2,4.3370,0.0240,4.5243
21-Jun-2004,18:13:53,1279.8,3.2,4.3371,0.0270,4.5243
21-Jun-2004,18:13:54,1280.4,3.2,4.3370,0.0210,4.5243
21-Jun-2004,18:13:55,1281.0,3.1,4.3370,0.0240,4.4408
21-Jun-2004,18:13:56,1279.8,3.0,4.3369,0.0180,4.5243
21-Jun-2004,18:13:57,1279.8,3.0,4.3366,0.0180,4.5244
21-Jun-2004,18:13:58,1280.4,3.1,4.3366,0.0210,4.5243
21-Jun-2004,18:13:59,1279.8,3.2,4.3365,0.0310,4.4410
21-Jun-2004,18:14:00,1280.4,3.5,4.3365,0.0210,4.5244
21-Jun-2004,18:14:01,1279.8,3.7,4.3365,0.0210,4.5244
21-Jun-2004,18:14:02,1279.2,4.0,4.3367,0.0180,4.4410
21-Jun-2004,18:14:03,1278.6,4.3,4.3369,0.0240,4.5244
21-Jun-2004,18:14:04,1278.6,4.6,4.3369,0.0280,4.4410
21-Jun-2004,18:14:05,1278.6,4.9,4.3370,0.0280,4.4410
21-Jun-2004,18:14:06,1278.6,5.0,4.3369,0.0240,4.4410
21-Jun-2004,18:14:07,1277.4,5.1,4.3376,0.0240,4.4410
21-Jun-2004,18:14:08,1277.4,5.3,4.3376,0.0210,4.5244
21-Jun-2004,18:14:09,1277.4,5.4,4.3371,0.0210,4.5244
21-Jun-2004,18:14:10,1278.0,5.4,4.3375,0.0240,4.4410
21-Jun-2004,18:14:11,1277.4,5.4,4.3377,0.0430,4.5244
21-Jun-2004,18:14:12,1277.4,5.5,4.3379,0.0280,4.4410
21-Jun-2004,18:14:13,1277.4,5.5,4.3378,0.0240,4.5244
21-Jun-2004,18:14:14,1277.4,5.6,4.3379,0.0210,4.4410
21-Jun-2004,18:14:15,1278.0,5.6,4.3380,0.0180,4.4410
21-Jun-2004,18:14:16,1278.0,5.4,4.3378,0.0280,4.5243
21-Jun-2004,18:14:17,1278.6,5.1,4.3377,0.0210,4.4409
21-Jun-2004,18:14:18,1278.6,4.9,4.3377,0.0270,4.5243
21-Jun-2004,18:14:19,1278.6,4.8,4.3378,0.0210,4.4409
21-Jun-2004,18:14:20,1278.6,4.5,4.3378,0.0180,4.5243
21-Jun-2004,18:14:21,1279.2,4.2,4.3378,0.0180,4.4409
21-Jun-2004,18:14:22,1279.2,4.0,4.3380,0.0400,4.5242
21-Jun-2004,18:14:23,1279.8,3.9,4.3380,0.0420,4.5242
21-Jun-2004,18:14:24,1279.8,3.8,4.3381,0.0180,4.4407
21-Jun-2004,18:14:25,1279.2,3.8,4.3377,0.0270,4.5243
21-Jun-2004,18:14:26,1279.8,4.0,4.3374,0.0210,4.4409
21-Jun-2004,18:14:27,1279.8,4.0,4.3370,0.0180,4.4409
21-Jun-2004,18:14:28,1279.8,4.0,4.3373,0.0210,4.4409
21-Jun-2004,18:14:29,1279.8,4.0,4.3369,0.0210,4.4409
21-Jun-2004,18:14:30,1279.8,3.9,4.3373,0.0180,4.4409
21-Jun-2004,18:14:31,1279.8,4.0,4.3375,0.0240,4.5242
21-Jun-2004,18:14:32,1279.8,4.0,4.3373,0.0180,4.4409
21-Jun-2004,18:14:33,1279.8,3.9,4.3373,0.0180,4.5243
21-Jun-2004,18:14:34,1279.8,3.8,4.3375,0.0950,4.4408
21-Jun-2004,18:14:35,1279.8,3.7,4.3373,0.0400,4.5243
21-Jun-2004,18:14:36,1279.8,3.7,4.3372,0.0300,4.5243
21-Jun-2004,18:14:37,1279.8,3.6,4.3373,0.0210,4.5243
21-Jun-2004,18:14:38,1279.8,3.5,4.3373,0.0240,4.4409
21-Jun-2004,18:14:39,1279.8,3.5,4.3369,0.0180,4.4409
21-Jun-2004,18:14:40,1279.8,3.5,4.3365,0.0340,4.5244
21-Jun-2004,18:14:41,1279.8,3.6,4.3363,0.0430,4.5244
21-Jun-2004,18:14:42,1279.8,3.6,4.3362,0.0210,4.4410
21-Jun-2004,18:14:43,1279.8,3.7,4.3366,0.0210,4.5244
21-Jun-2004,18:14:44,1279.8,3.5,4.3370,0.0180,4.5243
21-Jun-2004,18:14:45,1279.8,3.4,4.3368,0.0180,4.4409
21-Jun-2004,18:14:46,1279.8,3.5,4.3367,0.0150,4.4409
21-Jun-2004,18:14:47,1279.8,3.6,4.3366,0.0180,4.5243
21-Jun-2004,18:14:48,1279.8,3.6,4.3368,0.0210,4.5243
21-Jun-2004,18:14:49,1279.8,3.5,4.3368,0.0210,4.5243
21-Jun-2004,18:14:50,1279.8,3.4,4.3368,0.0240,4.4409
21-Jun-2004,18:14:51,1279.8,3.3,4.3368,0.0180,4.5243
21-Jun-2004,18:14:52,1279.8,3.5,4.3369,0.0210,4.5243
21-Jun-2004,18:14:53,1279.2,3.7,4.3369,0.0210,4.5244
21-Jun-2004,18:14:54,1279.2,3.9,4.3369,0.0300,4.4410
21-Jun-2004,18:14:55,1278.6,4.1,4.3370,0.0210,4.5244
21-Jun-2004,18:14:56,1278.6,4.3,4.3373,0.0340,4.5244
21-Jun-2004,18:14:57,1279.2,4.4,4.3371,0.0210,4.5243
21-Jun-2004,18:14:58,1278.6,4.4,4.3375,0.0210,4.5244
21-Jun-2004,18:14:59,1278.6,4.4,4.3376,0.0210,4.4409
21-Jun-2004,18:15:00,1278.6,4.5,4.3375,0.0240,4.5243
21-Jun-2004,18:15:01,1278.6,4.5,4.3378,0.0210,4.4409
21-Jun-2004,18:15:02,1278.6,4.5,4.3379,0.0310,4.4409
21-Jun-2004,18:15:03,1278.6,4.4,4.3375,0.0180,4.5243
21-Jun-2004,18:15:04,1278.6,4.3,4.3375,0.0180,4.4410
21-Jun-2004,18:15:05,1278.6,4.2,4.3373,0.0250,4.5244
21-Jun-2004,18:15:06,1279.2,4.1,4.3374,0.0210,4.5243
21-Jun-2004,18:15:07,1278.6,4.1,4.3375,0.0310,4.4409
21-Jun-2004,18:15:08,1279.2,4.1,4.3374,0.0150,4.5243
21-Jun-2004,18:15:09,1279.2,4.0,4.3372,0.0250,4.5243
21-Jun-2004,18:15:10,1279.2,4.0,4.3372,0.0270,4.4410
21-Jun-2004,18:15:11,1279.8,3.9,4.3373,0.0150,4.5243
21-Jun-2004,18:15:12,1279.8,3.9,4.3377,0.0420,4.4409
21-Jun-2004,18:15:13,1279.8,3.9,4.3374,0.0180,4.5243
21-Jun-2004,18:15:14,1279.2,3.8,4.3370,0.0210,4.5244
21-Jun-2004,18:15:15,1279.8,3.8,4.3368,0.0240,4.5243
21-Jun-2004,18:15:16,1279.8,3.6,4.3368,0.0610,4.5243
21-Jun-2004,18:15:17,1279.8,3.5,4.3367,0.0210,4.4410
21-Jun-2004,18:15:18,1279.8,3.5,4.3366,0.0210,4.5243
21-Jun-2004,18:15:19,1279.8,3.5,4.3367,0.0210,4.5243
21-Jun-2004,18:15:20,1279.8,3.5,4.3363,0.0250,4.4410
21-Jun-2004,18:15:21,1279.8,3.3,4.3367,0.0240,4.5243
21-Jun-2004,18:15:22,1280.4,3.3,4.3363,0.0180,4.5244
21-Jun-2004,18:15:23,1279.8,3.3,4.3361,0.0210,4.4410
21-Jun-2004,18:15:24,1279.8,3.2,4.3360,0.0180,4.5244
21-Jun-2004,18:15:25,1279.8,3.2,4.3360,0.0240,4.4410
21-Jun-2004,18:15:26,1279.8,3.4,4.3354,0.0210,4.5245
21-Jun-2004,18:15:27,1279.8,3.7,4.3355,0.0240,4.4411
21-Jun-2004,18:15:28,1279.8,3.8,4.3358,0.0240,4.5244
21-Jun-2004,18:15:29,1279.2,3.8,4.3358,0.0150,4.4412
21-Jun-2004,18:15:30,1278.6,4.0,4.3358,0.0180,4.5245
21-Jun-2004,18:15:31,1278.6,4.3,4.3356,0.0180,4.4412
21-Jun-2004,18:15:32,1278.6,4.5,4.3355,0.0240,4.5246
21-Jun-2004,18:15:33,1278.6,4.6,4.3358,0.0240,4.4412
21-Jun-2004,18:15:34,1278.6,4.5,4.3358,0.0210,4.5245
21-Jun-2004,18:15:35,1278.6,4.3,4.3362,0.0240,4.5245
21-Jun-2004,18:15:36,1279.2,4.3,4.3364,0.0180,4.4410
21-Jun-2004,18:15:37,1278.6,4.3,4.3366,0.0280,4.4410
21-Jun-2004,18:15:38,1278.6,4.3,4.3365,0.0240,4.5244
21-Jun-2004,18:15:39,1278.6,4.2,4.3366,0.0210,4.4410
21-Jun-2004,18:15:40,1279.2,4.2,4.3367,0.0240,4.4410
21-Jun-2004,18:15:41,1278.6,4.1,4.3364,0.0250,4.5244
21-Jun-2004,18:15:42,1278.6,4.0,4.3363,0.0340,4.4411
21-Jun-2004,18:15:43,1279.2,3.9,4.3366,0.0180,4.4410
21-Jun-2004,18:15:44,1279.2,3.9,4.3365,0.0270,4.5244
21-Jun-2004,18:15:45,1279.8,3.9,4.3365,0.0240,4.4410
21-Jun-2004,18:15:46,1279.8,3.8,4.3366,0.0210,4.5243
21-Jun-2004,18:15:47,1279.8,3.9,4.3361,0.0280,4.5244
21-Jun-2004,18:15:48,1278.6,3.9,4.3361,0.0210,4.4411
21-Jun-2004,18:15:49,1279.2,3.9,4.3361,0.0240,4.6085
21-Jun-2004,18:15:50,1278.6,4.0,4.3360,0.0240,4.4412
21-Jun-2004,18:15:51,1278.6,4.1,4.3358,0.0180,4.5245
21-Jun-2004,18:15:52,1278.6,4.1,4.3360,0.0180,4.5245
21-Jun-2004,18:15:53,1279.2,4.0,4.3361,0.0310,4.4410
21-Jun-2004,18:15:54,1279.2,4.0,4.3360,0.0210,4.5244
21-Jun-2004,18:15:55,1278.6,4.1,4.3358,0.0240,4.4412
21-Jun-2004,18:15:56,1278.6,4.2,4.3358,0.0210,4.5245
21-Jun-2004,18:15:57,1278.6,4.1,4.3360,0.0360,4.5245
21-Jun-2004,18:15:58,1278.6,4.1,4.3358,0.0250,4.4412
21-Jun-2004,18:15:59,1278.6,4.3,4.3356,0.0240,4.5246
21-Jun-2004,18:16:00,1278.6,4.4,4.3358,0.0180,4.4412
21-Jun-2004,18:16:01,1278.6,4.4,4.3359,0.0150,4.5245
21-Jun-2004,18:16:02,1278.6,4.5,4.3357,0.0250,4.4412
21-Jun-2004,18:16:03,1278.6,4.6,4.3359,0.0280,4.5245
21-Jun-2004,18:16:04,1278.6,4.5,4.3358,0.0280,4.4412
21-Jun-2004,18:16:05,1278.6,4.5,4.3360,0.0240,4.5245
21-Jun-2004,18:16:06,1278.0,4.7,4.3357,0.0180,4.4413
21-Jun-2004,18:16:07,1278.6,4.8,4.3358,0.0180,4.5245
21-Jun-2004,18:16:08,1278.6,4.7,4.3359,0.0340,4.4411
21-Jun-2004,18:16:09,1278.6,4.6,4.3360,0.0210,4.5245
21-Jun-2004,18:16:10,1278.6,4.7,4.3361,0.0120,4.5245
21-Jun-2004,18:16:11,1278.6,4.9,4.3361,0.0120,4.4411
21-Jun-2004,18:16:12,1278.0,5.0,4.3360,0.0210,4.5245
21-Jun-2004,18:16:13,1278.6,5.2,4.3362,0.0180,4.4411
21-Jun-2004,18:16:14,1278.6,5.2,4.3362,0.0240,4.5244
21-Jun-2004,18:16:15,1278.0,5.3,4.3361,0.0280,4.5245
21-Jun-2004,18:16:16,1277.4,5.6,4.3357,0.0150,4.4413
21-Jun-2004,18:16:17,1277.4,5.7,4.3359,0.0180,4.5246
21-Jun-2004,18:16:18,1277.4,5.6,4.3360,0.0210,4.4412
21-Jun-2004,18:16:19,1277.4,5.7,4.3361,0.0210,4.5246
21-Jun-2004,18:16:20,1277.4,5.8,4.3362,0.0180,4.5245
21-Jun-2004,18:16:21,1277.4,5.7,4.3364,0.0280,4.4412
21-Jun-2004,18:16:22,1277.4,5.7,4.3366,0.0300,4.5245
21-Jun-2004,18:16:23,1277.4,5.7,4.3367,0.0240,4.5245
21-Jun-2004,18:16:24,1277.4,5.8,4.3369,0.0210,4.4411
21-Jun-2004,18:16:25,1277.4,5.8,4.3369,0.0210,4.5245
21-Jun-2004,18:16:26,1277.4,5.7,4.3369,0.0210,4.5245
21-Jun-2004,18:16:27,1278.0,5.6,4.3366,0.0210,4.5244
21-Jun-2004,18:16:28,1278.6,5.4,4.3364,0.0180,4.4411
21-Jun-2004,18:16:29,1278.6,5.2,4.3369,0.0270,4.5244
21-Jun-2004,18:16:30,1278.6,5.2,4.3369,0.0180,4.5244
21-Jun-2004,18:16:31,1278.6,5.1,4.3370,0.0210,4.5244
21-Jun-2004,18:16:32,1278.6,5.0,4.3367,0.0240,4.5244
21-Jun-2004,18:16:33,1278.6,4.7,4.3368,0.0250,4.4410
21-Jun-2004,18:16:34,1278.6,4.6,4.3368,0.0520,4.5244
21-Jun-2004,18:16:35,1278.6,4.5,4.3372,0.0360,4.4410
21-Jun-2004,18:16:36,1279.2,4.4,4.3372,0.0210,4.5243
21-Jun-2004,18:16:37,1279.8,4.2,4.3371,0.0210,4.5243
21-Jun-2004,18:16:38,1278.6,4.1,4.3373,0.0180,4.4410
21-Jun-2004,18:16:39,1279.8,4.0,4.3373,0.0280,4.5243
21-Jun-2004,18:16:40,1279.8,3.9,4.3375,0.0210,4.5242
21-Jun-2004,18:16:41,1279.8,3.8,4.3377,0.0340,4.5242
21-Jun-2004,18:16:42,1279.8,3.7,4.3375,0.0210,4.5242
21-Jun-2004,18:16:43,1279.8,3.7,4.3374,0.0270,4.4409
21-Jun-2004,18:16:44,1279.8,3.8,4.3368,0.0240,4.4409
21-Jun-2004,18:16:45,1279.8,3.9,4.3369,0.0210,4.5243
21-Jun-2004,18:16:46,1279.8,3.8,4.3369,0.0210,4.5243
21-Jun-2004,18:16:47,1279.8,3.6,4.3368,0.0250,4.5243
21-Jun-2004,18:16:48,1280.4,3.6,4.3369,0.0280,4.5243
21-Jun-2004,18:16:49,1279.8,3.6,4.3368,0.0210,4.4409
21-Jun-2004,18:16:50,1279.8,3.6,4.3368,0.0180,4.5243
21-Jun-2004,18:16:51,1279.8,3.5,4.3367,0.0240,4.4409
21-Jun-2004,18:16:52,1279.8,3.5,4.3369,0.0520,4.5243
21-Jun-2004,18:16:53,1280.4,3.4,4.3365,0.0210,4.4410
21-Jun-2004,18:16:54,1279.8,3.3,4.3364,0.0250,4.5244
21-Jun-2004,18:16:55,1279.8,3.3,4.3365,0.0210,4.5244
21-Jun-2004,18:16:56,1280.4,3.2,4.3365,0.0210,4.4410
21-Jun-2004,18:16:57,1281.0,3.0,4.3364,0.0250,4.5243
21-Jun-2004,18:16:58,1279.8,3.0,4.3365,0.0280,4.5244
21-Jun-2004,18:16:59,1281.0,3.0,4.3369,0.0210,4.5242
21-Jun-2004,18:17:00,1281.0,2.8,4.3364,0.0180,4.4409
21-Jun-2004,18:17:01,1281.0,2.7,4.3368,0.0310,4.5242
21-Jun-2004,18:17:02,1281.0,2.5,4.3368,0.0210,4.5242
21-Jun-2004,18:17:03,1281.0,2.4,4.3365,0.0210,4.4409
21-Jun-2004,18:17:04,1281.0,2.4,4.3366,0.0310,4.5243
21-Jun-2004,18:17:05,1281.0,2.3,4.3362,0.0180,4.5243
21-Jun-2004,18:17:06,1281.0,2.1,4.3356,0.0180,4.4410
21-Jun-2004,18:17:07,1281.0,1.9,4.3358,0.0210,4.5244
21-Jun-2004,18:17:08,1282.2,1.9,4.3358,0.0180,4.4409
21-Jun-2004,18:17:09,1282.2,1.8,4.3358,0.0210,4.5243
21-Jun-2004,18:17:10,1282.2,1.7,4.3359,0.0240,4.5243
21-Jun-2004,18:17:11,1281.6,1.8,4.3357,0.0150,4.5243
21-Jun-2004,18:17:12,1281.0,2.1,4.3354,0.0180,4.4410
21-Jun-2004,18:17:13,1281.0,2.4,4.3354,0.0180,4.5244
21-Jun-2004,18:17:14,1281.0,2.6,4.3358,0.0240,4.4410
21-Jun-2004,18:17:15,1280.4,3.1,4.3363,0.0760,4.5244
21-Jun-2004,18:17:16,1279.8,3.5,4.3365,0.0250,4.5244
21-Jun-2004,18:17:17,1279.8,3.8,4.3367,0.0210,4.4410
21-Jun-2004,18:17:18,1279.8,4.1,4.3368,0.0210,4.5243
21-Jun-2004,18:17:19,1279.2,4.4,4.3371,0.0240,4.5243
21-Jun-2004,18:17:20,1278.6,4.6,4.3374,0.0180,4.5244
21-Jun-2004,18:17:21,1278.6,4.7,4.3372,0.0150,4.4410
21-Jun-2004,18:17:22,1278.6,4.6,4.3367,0.0280,4.4410
21-Jun-2004,18:17:23,1278.6,4.6,4.3369,0.0240,4.5244
21-Jun-2004,18:17:24,1278.6,4.7,4.3371,0.0250,4.5244
21-Jun-2004,18:17:25,1279.2,4.7,4.3369,0.0240,4.5244
21-Jun-2004,18:17:26,1279.2,4.6,4.3368,0.0150,4.5244
21-Jun-2004,18:17:27,1279.2,4.7,4.3370,0.0150,4.4410
21-Jun-2004,18:17:28,1278.6,4.7,4.3369,0.0240,4.5244
21-Jun-2004,18:17:29,1278.6,4.6,4.3368,0.0240,4.5244
21-Jun-2004,18:17:30,1278.6,4.7,4.3366,0.0370,4.4410
21-Jun-2004,18:17:31,1278.6,4.8,4.3366,0.0240,4.5244
21-Jun-2004,18:17:32,1278.6,4.6,4.3369,0.0240,4.5244
21-Jun-2004,18:17:33,1279.2,4.5,4.3369,0.0210,4.5244
21-Jun-2004,18:17:34,1279.2,4.5,4.3367,0.0370,4.5244
21-Jun-2004,18:17:35,1278.6,4.5,4.3366,0.0250,4.4410
21-Jun-2004,18:17:36,1278.6,4.6,4.3363,0.0180,4.5244
21-Jun-2004,18:17:37,1278.6,4.7,4.3362,0.0210,4.4411
21-Jun-2004,18:17:38,1278.6,4.8,4.3364,0.0250,4.5244
21-Jun-2004,18:17:39,1278.6,4.8,4.3366,0.0210,4.5244
21-Jun-2004,18:17:40,1278.6,4.9,4.3365,0.0210,4.5244
21-Jun-2004,18:17:41,1279.2,5.0,4.3366,0.0670,4.4410
21-Jun-2004,18:17:42,1278.6,5.1,4.3369,0.0150,4.5244
21-Jun-2004,18:17:43,1278.6,5.1,4.3369,0.0250,4.5244
21-Jun-2004,18:17:44,1278.6,5.0,4.3370,0.0250,4.5244
21-Jun-2004,18:17:45,1278.6,5.1,4.3376,0.0250,4.5243
21-Jun-2004,18:17:46,1279.2,5.0,4.3375,0.0280,4.4409
21-Jun-2004,18:17:47,1278.6,4.8,4.3373,0.0250,4.4410
21-Jun-2004,18:17:48,1279.8,4.6,4.3377,0.0210,4.5242
21-Jun-2004,18:17:49,1279.2,4.5,4.3379,0.0180,4.5242
21-Jun-2004,18:17:50,1279.8,4.3,4.3376,0.0180,4.5242
21-Jun-2004,18:17:51,1279.8,4.1,4.3373,0.0240,4.5243
21-Jun-2004,18:17:52,1279.8,3.9,4.3372,0.0210,4.4409
21-Jun-2004,18:17:53,1279.8,3.8,4.3374,0.0310,4.5242
21-Jun-2004,18:17:54,1280.4,3.8,4.3373,0.0310,4.5242
21-Jun-2004,18:17:55,1280.4,3.8,4.3373,0.0250,4.4409
21-Jun-2004,18:17:56,1279.8,3.8,4.3371,0.0280,4.5243
21-Jun-2004,18:17:57,1279.8,3.9,4.3367,0.0240,4.5243
21-Jun-2004,18:17:58,1279.8,3.9,4.3367,0.0340,4.5244
21-Jun-2004,18:17:59,1279.8,4.0,4.3368,0.0210,4.4409
21-Jun-2004,18:18:00,1279.8,3.9,4.3367,0.0180,4.5244
21-Jun-2004,18:18:01,1279.8,3.8,4.3369,0.0280,4.5243
21-Jun-2004,18:18:02,1279.8,3.9,4.3369,0.0460,4.5243
21-Jun-2004,18:18:03,1279.8,4.0,4.3369,0.0550,4.5243
21-Jun-2004,18:18:04,1279.8,4.0,4.3370,0.0270,4.4409
21-Jun-2004,18:18:05,1279.8,3.9,4.3373,0.0430,4.5243
21-Jun-2004,18:18:06,1279.8,4.0,4.3373,0.0280,4.5243
21-Jun-2004,18:18:07,1279.8,3.9,4.3365,0.0250,4.5244
21-Jun-2004,18:18:08,1279.8,3.9,4.3369,0.0180,4.5243